Theta_e
313 314 314 315 314 313 312 312 312 310 309 306 304 303 299 298 294 303 308 308 299 297 287 294 293 287 289 294 293 292 292 291 294 294 294 292 293 292 292 291 289 291 289 288 287 287 286 288 287 290 290 290 292 293 294 294 295 292 291 292 291 302 285 284 284 284 287 289 291 294 293 291 288 289 290 289 286 287 286 283 285 285 285 282 283 287 290
313 314 315 314 314 312 312 312 312 311 309 306 304 300 298 298 299 301 308 307 301 295 286 286 287 289 292 292 291 293 293 293 292 293 294 292 291 291 291 292 293 291 292 290 288 290 283 289 288 287 291 289 294 295 294 296 296 296 293 291 295 285 285 282 278 277 280 283 286 288 290 291 288 286 288 289 289 289 290 289 289 286 286 286 282 283 288
313 314 314 314 313 312 312 312 311 311 311 307 302 299 297 297 299 302 303 306 300 292 288 287 287 290 288 289 288 289 291 292 293 293 292 294 292 290 290 293 293 291 293 291 291 291 287 286 290 289 291 291 295 294 294 297 295 299 302 304 299 288 287 281 276 276 276 277 276 278 282 284 287 288 288 289 288 288 286 283 285 278 287 287 284 284 289
313 314 314 314 313 312 313 312 312 311 311 308 300 299 296 293 289 295 295 298 296 294 296 291 289 288 289 288 289 289 288 293 293 294 293 294 294 293 294 293 293 291 290 289 289 289 291 288 287 287 288 289 292 293 293 296 298 302 305 305 297 287 287 283 279 276 276 278 282 287 293 285 282 285 287 288 288 288 288 286 282 281 284 285 285 289 288
313 314 314 314 313 313 312 312 311 311 310 308 298 296 297 296 291 292 287 294 293 290 292 292 291 288 290 284 290 288 289 290 292 293 291 294 293 292 292 293 289 289 288 288 288 289 289 289 287 288 288 290 291 293 293 293 302 304 301 303 293 287 284 286 286 284 284 286 287 288 290 285 285 286 286 288 288 288 288 284 283 287 283 279 288 289 287
313 314 315 314 313 313 312 312 311 311 309 308 301 297 296 289 294 295 297 288 286 286 290 291 293 295 291 288 290 289 288 288 288 292 294 294 293 290 291 292 291 291 289 287 285 286 285 286 285 288 288 288 290 290 293 291 298 299 292 297 291 285 283 288 288 286 287 286 286 288 288 287 287 287 286 287 288 287 286 286 286 287 283 282 286 289 289
313 314 315 315 314 313 313 312 311 310 308 306 300 298 297 296 296 297 301 290 291 288 294 295 292 292 295 293 290 288 287 288 290 290 290 291 291 290 285 289 291 291 290 287 285 284 281 284 286 285 286 287 286 285 288 293 291 292 290 290 292 285 283 288 287 286 286 286 287 288 287 287 287 287 287 287 287 287 287 286 287 288 287 288 288 289 291
313 314 315 315 314 314 313 312 311 310 307 306 306 300 295 295 294 294 297 293 294 295 291 291 291 290 295 287 289 288 288 288 288 291 290 287 290 293 289 289 291 291 289 287 286 288 287 287 285 289 287 285 286 287 286 287 290 290 289 290 291 286 285 293 286 284 285 287 290 287 287 287 285 286 287 287 287 286 287 287 287 292 288 288 288 288 290
313 314 314 315 314 314 313 312 311 309 308 305 301 300 301 299 297 298 289 288 292 296 289 288 289 286 289 286 291 293 290 289 289 290 293 290 289 291 289 290 291 290 289 289 290 291 290 289 290 291 287 286 289 287 287 289 288 287 288 289 289 287 283 285 282 280 281 285 287 287 288 287 285 284 285 286 286 287 289 290 293 291 288 290 290 289 291
313 314 314 315 314 314 314 313 312 309 308 301 296 298 300 299 301 296 289 288 294 288 289 288 287 286 289 293 291 292 291 292 291 288 292 292 293 292 291 291 288 287 288 289 291 293 292 292 291 292 290 291 291 292 292 290 290 286 287 289 287 284 282 281 280 277 278 282 286 286 286 281 279 281 285 288 288 289 291 297 301 299 299 292 288 289 299
313 314 314 315 315 315 315 314 314 309 308 304 300 299 298 299 298 295 290 288 289 288 286 286 288 292 291 294 292 294 293 294 292 285 288 293 294 294 293 290 287 286 287 293 296 296 295 294 294 295 295 293 291 292 295 294 294 290 288 287 287 287 284 282 283 279 277 281 284 286 279 274 276 286 291 291 291 292 293 295 298 300 300 297 298 300 302
313 313 314 314 315 315 315 315 314 311 306 304 302 301 302 298 294 290 287 287 289 288 287 288 289 292 292 294 293 292 292 293 294 293 291 293 295 296 295 292 288 287 295 297 298 297 298 298 296 295 295 295 294 294 293 292 292 295 292 289 287 290 284 282 281 280 278 280 282 279 273 275 285 290 292 293 297 297 299 298 298 299 302 302 300 301 300
312 313 314 314 315 315 315 315 314 313 310 304 304 302 304 303 298 291 289 289 288 288 286 290 292 294 294 294 292 293 294 294 296 299 295 294 294 296 296 294 294 295 299 296 296 294 291 289 288 288 289 290 291 292 292 291 291 292 293 292 287 285 283 285 283 280 280 278 276 269 272 282 288 289 295 300 297 296 298 298 298 299 299 301 300 302 302
312 313 314 314 314 315 315 315 314 313 311 307 305 303 303 303 298 295 289 288 291 289 289 287 289 292 293 293 292 293 292 293 293 294 294 297 295 295 298 301 300 301 297 297 294 288 286 284 281 281 284 283 283 286 290 291 291 291 291 292 293 288 286 285 281 282 278 278 276 277 283 285 284 290 293 294 289 292 290 287 291 298 299 299 299 300 302
312 313 313 314 314 314 315 315 314 314 312 309 302 301 305 305 300 300 296 292 290 292 287 287 290 292 293 293 292 289 290 289 290 292 294 297 298 300 300 301 301 299 298 295 289 287 285 280 278 276 278 278 276 279 285 286 289 292 292 292 291 289 286 284 282 281 281 278 277 275 274 273 279 289 296 298 298 298 297 293 290 298 298 300 299 299 300
312 313 313 313 314 314 314 315 314 314 313 310 304 301 303 306 301 300 293 290 286 286 290 291 295 294 291 292 293 292 290 288 288 286 287 289 293 297 302 302 301 301 298 293 288 284 282 281 278 274 275 276 281 280 278 284 285 290 290 291 291 290 288 286 284 283 281 280 275 273 270 277 284 289 292 296 297 298 297 290 285 298 296 299 300 299 300
312 312 313 313 314 314 314 314 315 314 313 310 302 301 303 305 306 300 294 292 291 290 291 298 297 294 289 292 292 291 288 289 287 289 287 288 294 296 298 301 300 301 295 289 286 284 281 279 277 272 272 280 278 275 279 277 280 282 287 286 286 286 285 282 281 281 282 280 276 275 279 277 286 291 294 296 298 298 291 279 281 293 296 299 301 299 299
312 312 313 313 313 314 314 314 314 314 313 311 303 301 305 305 304 303 298 291 288 290 290 300 296 292 291 289 290 293 293 293 292 290 289 291 292 294 296 297 295 298 299 291 287 279 278 274 276 276 275 282 283 280 274 276 277 278 280 281 281 282 283 282 280 280 284 285 279 280 282 290 294 293 296 297 298 293 282 278 289 295 296 300 300 299 299
311 312 312 313 313 313 313 314 314 314 314 311 304 301 304 305 307 301 297 294 291 292 294 301 304 297 297 298 295 295 296 295 291 289 287 287 292 296 297 297 298 292 293 289 283 281 279 280 279 270 273 278 280 274 276 277 276 281 283 280 280 281 282 285 282 280 279 281 279 280 282 288 293 295 297 298 292 281 279 289 295 295 297 300 299 298 299
311 311 312 312 312 313 313 313 313 313 314 312 305 301 305 304 308 304 300 293 291 292 295 298 302 299 303 300 296 294 295 294 289 288 286 286 291 295 289 286 291 293 290 288 286 283 279 278 277 279 276 272 276 280 276 275 281 283 279 280 280 280 279 277 280 282 283 284 282 281 277 290 296 296 294 297 287 286 292 294 296 300 298 297 297 297 298
311 311 311 312 312 312 312 313 313 313 313 313 308 300 303 306 307 308 302 299 292 293 294 298 302 302 303 301 300 299 297 295 292 292 292 289 292 288 280 284 286 289 287 286 282 283 281 278 281 278 282 280 283 281 277 272 278 285 286 283 283 281 280 278 280 285 280 281 280 281 287 292 297 293 286 291 296 295 296 297 294 296 296 296 295 296 297
311 311 311 311 311 312 312 312 313 312 312 313 308 298 298 301 304 308 309 302 296 293 295 299 304 303 305 306 305 304 304 302 300 298 294 292 294 294 289 288 289 290 291 288 286 286 286 281 284 281 281 281 285 278 278 276 274 277 286 286 279 287 284 283 277 284 283 281 284 290 291 294 295 295 294 294 296 297 298 297 295 294 294 297 296 296 297
311 311 311 311 311 312 312 312 312 312 312 312 308 300 298 300 303 308 304 301 298 301 303 300 302 304 309 310 311 309 309 309 307 303 299 296 294 293 293 293 292 295 296 292 289 285 284 286 284 284 282 282 284 278 281 280 276 279 281 288 284 288 289 287 288 285 288 290 291 292 292 293 294 297 298 296 296 298 297 296 294 295 296 297 296 296 297
311 311 311 311 311 311 312 312 312 312 311 312 310 306 303 303 306 306 302 299 295 295 296 296 297 297 300 303 308 311 310 309 309 308 306 305 294 292 294 297 297 298 294 294 293 290 287 286 288 287 283 285 285 280 278 277 281 282 281 283 286 287 289 288 285 287 284 280 288 291 292 293 294 295 296 297 297 296 296 295 295 295 296 296 297 297 297
310 310 310 311 311 311 311 311 312 311 311 311 311 310 308 303 301 304 299 298 296 290 291 296 297 302 305 308 309 308 309 311 315 310 308 306 304 298 297 299 302 299 296 297 295 295 291 287 288 286 283 286 290 282 284 283 283 285 281 283 283 285 291 288 287 284 284 285 287 290 292 293 294 294 293 293 294 296 297 297 296 297 297 298 297 298 297
310 310 310 310 311 311 311 311 311 311 311 312 311 307 304 301 303 306 304 303 302 301 298 295 298 305 306 306 305 307 310 310 310 310 309 307 307 307 302 303 301 302 300 299 297 296 290 288 284 283 284 287 291 284 282 287 283 286 286 284 286 288 294 284 286 286 287 289 291 292 292 292 293 294 295 295 295 295 295 296 297 297 296 296 297 299 298
310 310 310 310 310 310 310 310 311 311 311 312 310 309 307 307 309 305 301 303 297 292 294 294 297 300 304 305 309 310 311 310 310 308 308 309 307 307 304 301 300 298 299 296 295 293 288 287 288 288 288 287 291 288 287 288 287 285 283 286 290 290 285 284 285 284 283 284 287 289 285 285 287 290 293 295 295 295 295 295 295 296 295 296 295 296 298
310 310 310 310 310 310 310 310 310 310 311 311 310 309 309 306 307 308 306 302 298 292 291 294 296 301 306 303 308 308 309 311 310 308 307 307 307 305 303 302 300 298 297 297 293 293 291 290 290 291 291 292 291 290 291 292 290 287 288 288 292 290 289 287 285 283 284 289 291 291 291 289 291 292 293 295 296 296 295 295 295 296 296 297 296 296 296
310 310 310 309 309 309 310 310 310 310 311 310 309 307 306 307 308 309 308 308 304 302 301 301 303 299 294 301 309 307 309 309 308 307 306 305 305 304 303 302 301 300 299 297 294 293 291 293 295 293 291 295 294 291 292 287 286 286 291 293 292 294 294 293 293 292 292 293 291 292 291 291 291 293 294 295 296 296 295 296 297 297 297 297 297 297 297
309 309 309 309 309 309 309 309 310 310 310 309 306 300 295 301 306 307 308 309 305 303 299 298 294 298 305 306 305 307 308 310 308 307 306 304 303 303 303 302 302 305 302 299 297 294 295 294 297 298 300 303 296 294 291 289 286 290 294 294 295 295 295 296 296 293 293 295 293 293 293 293 294 294 295 295 297 298 295 296 296 297 298 299 298 299 299
309 309 309 309 309 309 309 309 310 310 310 305 300 291 287 291 302 311 310 309 308 306 303 303 299 304 301 303 304 304 306 308 305 305 306 305 303 303 304 304 305 306 300 300 298 299 298 295 296 297 302 302 300 293 291 287 285 288 292 294 295 295 295 295 297 297 297 293 293 294 294 294 295 296 296 296 296 298 299 300 302 304 303 302 300 299 298
309 309 308 308 308 309 309 310 309 310 309 304 299 297 293 301 307 310 310 310 311 306 303 299 298 294 292 300 303 309 308 307 308 306 304 307 302 305 306 305 301 306 304 299 301 299 299 299 297 298 297 304 302 295 293 290 289 291 295 294 296 296 297 297 296 296 296 296 295 294 293 293 294 294 294 295 296 297 297 297 298 298 302 301 299 298 298
308 308 308 308 308 309 309 309 310 309 307 308 310 310 309 309 309 309 309 309 310 308 308 302 297 299 296 298 303 304 308 303 300 301 301 305 300 302 301 305 303 301 309 302 297 296 301 300 300 298 301 305 298 296 292 291 292 297 298 298 296 296 297 298 297 297 296 295 296 293 292 292 293 295 297 297 297 297 297 297 298 298 297 296 296 296 297
308 308 307 308 308 309 309 310 311 310 309 306 302 302 305 309 309 309 310 310 309 310 308 301 298 296 297 304 297 302 308 301 299 298 296 303 303 300 298 300 302 298 301 298 300 301 302 301 298 298 300 298 299 294 290 294 298 298 299 298 297 296 296 295 296 295 295 295 296 296 296 295 295 295 295 296 296 297 299 297 297 296 296 295 295 296 296
308 308 308 308 309 310 310 310 307 306 302 303 302 305 304 310 309 310 309 307 303 302 302 303 302 296 295 296 294 298 306 302 297 299 297 298 307 298 300 297 299 296 297 305 299 298 296 298 300 295 294 299 296 290 293 296 298 298 296 296 295 296 296 295 295 295 295 296 296 296 295 297 296 295 296 297 297 297 296 296 296 295 294 295 295 295 296
308 308 309 309 309 310 309 307 306 304 302 301 304 312 316 313 312 310 310 312 309 302 301 302 301 296 297 292 292 297 308 299 299 299 298 298 298 304 302 298 293 298 304 299 295 296 295 302 299 291 299 292 291 294 296 299 298 298 297 297 297 297 297 297 297 298 297 297 297 297 296 296 295 296 296 296 296 296 296 295 296 295 294 294 295 295 296
308 309 309 310 309 307 303 305 308 305 303 305 309 316 315 314 312 312 310 309 312 312 303 301 297 297 299 298 300 304 303 292 296 295 296 297 294 299 299 297 293 299 299 297 297 295 298 306 297 292 293 289 294 299 300 301 300 299 299 300 300 300 300 299 299 298 297 296 296 295 295 295 294 294 294 295 295 296 294 295 295 295 294 294 295 296 296
309 309 307 306 304 302 303 306 306 309 313 314 316 309 306 311 304 305 305 303 308 310 305 304 298 301 303 299 294 304 302 297 297 293 292 298 292 290 299 298 298 300 291 295 297 303 299 297 294 291 292 298 299 300 301 301 301 302 301 301 300 300 299 299 299 297 295 294 294 294 295 294 294 294 294 294 295 294 295 295 295 295 295 296 297 297 298
308 306 306 305 303 299 303 308 312 316 312 313 311 306 302 307 304 300 300 303 305 300 305 301 298 301 300 298 300 306 302 298 296 296 293 299 295 290 295 289 296 298 289 291 293 302 291 291 293 292 290 293 293 296 299 299 299 299 301 301 301 300 300 298 299 297 296 295 295 295 296 294 293 293 293 294 294 294 294 294 295 296 296 296 297 299 300
304 302 303 303 303 306 313 311 315 312 311 304 306 302 300 303 298 292 304 296 295 302 303 297 302 300 301 298 296 295 305 297 292 292 294 296 302 292 297 295 294 293 286 287 291 298 291 286 292 291 287 291 293 297 298 298 299 298 298 299 300 300 299 299 300 300 300 298 296 295 295 295 295 294 293 293 294 294 294 295 296 296 296 297 300 300 299
302 303 303 304 308 307 307 308 309 307 302 298 300 304 301 294 299 299 299 295 294 296 303 299 300 296 299 300 299 297 302 305 300 301 298 295 303 301 296 292 299 291 289 287 295 296 294 291 291 287 287 293 294 296 298 298 298 300 299 299 299 299 299 299 300 299 298 296 297 296 295 295 297 295 295 295 295 294 295 295 296 297 298 298 298 300 301
306 306 306 307 308 307 307 305 300 299 301 303 298 290 293 297 299 296 296 290 290 295 298 299 294 294 295 300 299 299 298 302 301 302 298 294 300 296 294 295 295 288 284 291 297 293 291 285 285 285 291 294 296 298 298 297 298 299 298 298 300 299 298 298 298 298 298 297 296 296 295 295 295 295 296 296 295 295 296 297 297 297 298 299 301 301 301
308 309 308 306 305 304 301 291 299 301 292 293 290 289 291 288 290 291 293 298 303 298 297 303 301 302 303 305 300 301 298 304 299 296 293 290 298 298 294 290 290 286 289 295 291 287 286 284 282 287 292 294 296 297 297 297 297 298 300 300 299 299 299 297 297 297 297 297 296 296 296 295 296 296 297 297 298 297 297 299 299 298 298 300 301 301 300
308 308 307 306 299 301 299 290 301 299 291 287 287 285 285 289 289 293 293 293 294 296 298 297 297 297 295 298 296 297 300 301 301 295 293 295 294 293 292 287 288 294 298 289 284 281 283 286 287 289 293 294 297 298 298 299 299 299 300 301 300 298 297 297 297 296 296 296 297 297 296 296 296 297 298 297 298 298 296 296 298 300 300 300 300 300 299
303 296 290 291 293 296 293 290 292 288 284 283 291 293 293 291 293 290 292 297 298 296 298 300 297 296 299 300 298 298 296 293 297 293 290 293 289 290 289 286 289 293 289 284 282 282 284 286 291 293 293 294 296 298 299 300 300 300 301 301 301 300 298 297 297 297 296 296 296 296 296 295 296 296 297 296 297 298 297 296 297 299 299 300 300 298 298
296 288 283 286 287 289 288 284 285 289 290 291 293 296 294 296 295 295 299 300 297 298 298 299 299 299 298 298 296 293 294 293 291 293 294 290 288 287 290 293 292 287 284 283 277 273 279 287 291 292 294 295 296 298 299 300 301 301 301 299 300 300 299 298 297 297 297 296 296 296 296 296 295 296 296 296 298 297 297 297 298 298 299 299 298 298 297
296 298 287 286 285 285 290 288 287 288 293 296 298 299 298 299 299 299 298 299 300 301 300 301 300 300 296 293 295 293 294 294 291 293 291 286 285 287 294 288 282 283 281 277 275 281 286 291 293 293 294 295 297 298 298 299 301 301 300 301 301 300 300 298 297 296 296 297 297 296 296 296 296 294 296 297 297 297 298 298 297 299 299 299 298 297 297
287 287 292 291 288 286 289 292 293 295 302 301 300 301 302 301 300 300 302 301 301 301 300 300 297 295 293 295 296 291 290 292 291 290 294 289 288 284 280 282 283 285 284 282 283 289 290 293 293 294 296 297 296 297 297 299 300 301 301 300 301 300 300 299 297 296 297 297 296 296 296 296 295 296 296 297 298 297 297 297 298 298 299 298 297 297 296
298 290 290 286 289 288 290 293 296 297 300 302 304 303 301 300 300 302 305 301 300 301 301 298 297 295 291 292 290 289 288 289 286 283 288 284 283 283 284 282 284 283 288 289 288 291 292 294 296 297 297 297 296 296 297 298 300 301 302 301 300 300 299 297 297 297 298 297 297 297 297 298 296 297 298 298 296 297 297 297 297 297 298 297 297 297 296
290 289 294 291 294 292 293 296 297 295 297 300 299 298 299 299 299 302 303 302 300 300 298 299 297 293 290 290 284 283 284 283 287 285 284 284 286 287 286 282 284 284 286 290 291 293 295 295 295 294 295 296 297 297 296 298 301 302 303 303 302 301 299 298 298 298 298 297 297 298 299 299 297 298 297 296 297 298 298 298 298 297 297 298 298 297 297
296 289 290 297 294 291 295 294 293 294 295 297 295 297 295 297 296 299 301 301 298 293 292 292 287 286 284 281 279 280 283 289 287 285 285 286 290 287 283 282 285 288 289 292 293 293 293 294 294 294 294 294 294 295 297 299 300 301 303 304 302 301 300 301 300 299 298 299 300 303 298 297 296 296 298 298 297 297 297 298 299 297 297 299 299 299 298
292 293 295 296 299 299 299 298 299 300 300 301 299 299 298 299 299 301 303 298 294 294 293 290 287 283 280 283 285 287 287 285 284 285 281 284 290 286 286 287 288 290 291 290 290 291 293 293 293 294 293 294 295 296 297 299 300 301 302 302 302 300 300 300 300 299 299 299 298 298 298 300 299 298 299 298 296 296 295 295 297 298 299 298 299 300 299
Wind_Speed
22 22 22 22 23 23 23 23 23 22 20 7 6 3 4 5 2 5 6 8 4 13 6 3 4 3 1 2 4 3 3 1 3 5 5 4 3 4 7 4 2 5 2 3 3 3 5 3 3 1 1 1 3 6 8 7 4 3 4 2 1 1 4 3 2 4 4 4 2 2 4 2 4 7 6 6 6 3 1 2 1 3 4 5 3 3 3
22 22 21 21 23 23 23 23 23 20 14 2 3 6 3 1 0 6 6 11 2 11 4 3 5 4 2 4 4 5 3 5 5 5 5 3 3 3 2 4 5 3 3 3 1 1 3 3 3 3 1 2 5 7 8 8 5 5 0 0 3 1 2 4 2 2 2 4 3 1 2 5 4 2 5 3 4 5 1 2 2 3 1 0 3 5 2
21 21 20 21 23 23 22 23 22 19 13 3 1 1 3 2 1 1 7 10 9 6 2 5 5 3 3 3 6 4 4 3 3 4 4 3 2 1 3 1 1 3 1 4 3 5 3 3 3 2 2 1 3 8 9 8 4 5 6 7 0 5 0 1 2 3 2 1 1 2 6 4 2 1 4 6 8 7 6 3 4 3 1 1 2 1 4
20 20 19 20 22 23 23 23 22 19 14 2 2 2 2 3 3 6 6 8 7 5 1 4 5 3 3 6 2 2 2 1 4 4 4 3 3 5 1 0 3 4 5 7 7 8 8 4 1 2 2 3 2 3 8 9 6 10 13 10 3 3 2 4 3 3 4 2 1 2 1 3 3 4 4 6 3 4 3 3 3 1 2 3 4 1 5
20 19 19 20 21 23 23 23 23 20 13 4 3 3 3 2 5 2 3 6 7 3 5 3 3 1 2 2 1 4 2 1 3 5 2 3 2 2 4 2 2 2 6 3 4 4 4 6 5 2 1 2 1 4 4 7 12 16 9 10 3 4 5 4 6 5 2 3 0 2 2 2 2 5 3 5 5 3 1 2 2 3 3 3 2 2 5
20 20 19 20 21 22 23 24 24 22 16 2 3 4 4 5 1 1 1 3 1 6 5 5 5 3 3 1 1 1 3 4 1 3 2 0 4 2 4 7 3 3 4 3 4 1 3 3 2 1 1 1 5 3 5 5 8 9 4 6 4 3 3 1 3 2 1 2 2 3 2 0 1 3 3 4 4 4 2 2 4 3 3 6 3 2 3
19 20 21 19 20 21 22 24 25 23 19 6 4 6 2 4 1 1 1 2 0 2 1 2 6 8 4 2 4 2 3 4 0 0 2 3 3 2 2 2 2 2 2 3 2 1 2 2 1 1 1 1 2 3 2 2 7 5 4 4 1 3 2 1 3 1 2 3 2 2 3 2 2 3 4 4 3 5 3 6 5 6 5 6 6 4 2
18 19 20 19 19 21 22 23 25 24 17 5 9 5 2 2 1 1 4 4 3 3 3 2 5 7 4 3 3 1 2 2 5 2 2 1 1 2 5 1 2 3 4 3 4 1 4 3 2 1 2 2 0 0 1 1 4 4 2 1 3 4 1 5 2 2 2 2 4 2 2 1 3 5 6 6 5 4 5 3 3 3 4 5 7 5 2
17 18 19 20 18 19 21 22 24 25 13 7 6 2 3 1 1 1 3 5 4 3 4 4 4 3 6 5 2 2 4 1 0 1 1 1 0 1 4 3 2 2 4 4 2 3 5 5 3 6 4 1 4 1 2 2 1 2 2 2 2 5 1 2 3 3 2 1 3 4 3 3 3 4 5 5 2 1 1 1 2 1 2 2 1 1 2
16 17 18 18 17 18 19 20 23 22 14 8 3 3 2 2 1 2 2 3 3 2 1 1 3 4 2 1 1 1 2 3 1 2 3 4 2 1 5 3 7 2 5 3 1 3 7 6 5 5 5 2 2 1 2 2 1 1 1 1 2 1 2 1 1 2 2 3 2 4 3 2 2 1 0 2 3 3 3 1 4 3 1 1 4 2 0
15 16 17 16 16 17 18 19 19 19 9 7 4 2 3 0 1 2 4 5 3 2 1 3 6 1 0 4 2 2 2 5 4 2 1 3 4 2 4 3 5 1 1 1 1 2 3 2 3 4 6 3 4 4 6 8 4 1 3 2 1 1 4 1 1 1 3 4 7 3 4 4 3 2 0 1 2 3 4 1 3 5 3 2 1 1 1
14 14 15 15 16 16 17 17 18 18 10 2 3 2 1 0 2 4 4 5 0 2 3 1 1 0 2 1 3 2 5 6 3 0 4 1 1 0 5 4 4 2 2 1 2 2 2 2 4 4 8 8 8 7 9 8 4 3 1 3 2 3 3 2 2 2 2 3 5 4 2 6 2 5 6 3 1 2 3 5 4 4 5 4 2 2 3
13 13 14 15 15 15 15 16 16 16 13 3 4 4 2 0 1 3 6 6 1 1 2 1 1 0 0 1 4 3 2 2 2 4 2 1 3 4 2 2 1 0 1 3 5 5 3 0 1 0 3 4 2 6 9 7 4 4 4 2 4 3 4 2 1 1 2 2 1 1 4 4 5 7 3 5 2 3 1 3 4 4 4 4 2 4 5
12 12 13 13 15 14 15 15 15 15 14 6 5 3 2 1 1 3 2 4 0 0 0 1 2 2 2 2 3 0 2 3 3 1 3 2 2 2 2 1 0 1 2 4 6 3 2 4 2 3 3 5 3 1 1 0 2 3 4 3 1 6 3 2 0 0 2 2 3 6 3 6 5 3 3 3 1 2 2 1 1 3 4 5 4 6 7
11 11 11 12 13 13 13 14 14 15 15 10 2 3 6 5 2 4 2 5 2 0 1 2 1 1 0 0 1 2 3 1 3 2 2 1 0 0 0 1 2 2 1 1 2 5 2 2 3 1 3 2 0 2 2 0 2 2 2 2 2 2 2 2 3 2 3 2 2 3 2 1 4 1 2 0 1 1 3 0 2 3 5 5 5 6 7
10 10 10 11 12 12 13 13 13 14 15 11 5 2 3 2 0 4 3 4 5 1 1 5 2 2 1 1 1 2 2 1 0 1 1 3 1 4 0 1 2 2 4 6 2 4 2 1 2 2 1 1 1 1 1 3 2 1 3 4 5 4 4 3 5 1 2 1 2 3 3 6 5 5 2 4 2 3 1 2 4 2 5 6 5 6 7
9 9 9 10 10 11 12 13 12 13 13 12 4 3 3 3 4 1 2 3 3 1 2 2 2 2 4 1 1 1 2 1 3 1 1 1 0 1 4 3 2 4 3 3 3 2 2 4 1 1 2 1 1 2 0 1 1 1 2 5 8 6 3 2 1 1 2 3 2 4 4 2 2 5 3 3 2 1 2 5 5 1 5 5 5 6 7
8 9 9 9 9 10 11 11 13 13 13 11 2 2 2 2 3 0 4 3 2 1 2 6 3 1 1 4 1 1 2 2 2 2 1 1 1 1 1 2 1 2 1 1 1 4 2 2 1 2 2 1 0 1 2 2 1 2 1 1 1 2 2 2 6 2 3 6 3 2 4 2 2 1 3 4 3 2 0 8 2 1 4 3 4 4 5
8 8 8 8 8 9 10 11 11 13 14 12 3 2 2 3 4 4 5 3 2 0 1 2 0 2 1 2 2 2 1 1 3 2 1 3 1 1 1 1 0 1 5 4 3 2 2 1 1 1 2 1 1 2 1 1 3 0 1 1 1 1 2 0 2 2 3 3 3 5 4 4 3 3 4 2 1 2 9 2 2 4 2 1 2 4 4
8 7 7 7 7 8 9 9 10 11 12 12 5 1 2 3 3 3 3 1 2 2 4 2 3 5 3 3 3 1 0 1 1 2 3 1 2 1 2 1 2 2 1 2 1 1 2 2 2 1 0 2 2 4 1 3 1 3 3 1 2 4 4 3 3 2 3 2 1 3 5 2 2 1 2 2 4 4 1 1 1 2 1 2 2 1 4
7 7 7 7 6 7 7 8 9 10 11 12 5 2 1 2 3 4 3 5 2 1 4 2 1 3 3 3 4 3 5 5 4 1 5 1 2 3 1 1 3 1 2 3 3 2 3 1 2 2 2 4 1 1 3 1 4 4 2 3 3 3 2 1 3 4 4 5 5 6 6 3 5 3 3 3 3 2 1 2 1 0 0 1 2 3 3
7 7 7 6 6 6 6 7 7 8 9 11 8 2 1 2 2 3 3 2 1 4 4 1 2 2 5 4 4 4 4 3 7 4 4 1 1 3 2 2 3 2 2 3 2 1 1 1 1 1 2 1 1 2 3 1 2 1 2 2 1 6 5 6 3 4 5 6 7 4 1 4 4 4 3 4 4 1 2 3 2 1 2 2 3 5 6
7 7 7 7 6 6 5 6 6 6 7 8 5 3 1 4 5 4 1 0 3 2 2 2 2 3 2 5 7 8 8 5 3 1 3 3 1 1 3 2 3 2 1 2 4 4 3 5 3 4 1 2 7 2 0 3 2 1 3 5 2 2 1 2 2 4 3 5 8 3 2 4 6 5 5 5 3 2 3 2 2 3 3 2 3 5 6
7 7 7 6 6 6 6 5 5 5 6 6 3 1 1 2 4 4 3 3 3 4 3 1 2 1 0 1 1 1 2 3 7 6 3 5 3 2 1 2 1 1 1 4 5 4 4 2 1 2 1 3 4 2 4 4 7 4 1 2 2 2 2 2 2 1 1 4 1 5 9 7 6 7 3 3 3 4 5 3 4 4 4 4 5 6 6
7 7 7 6 6 6 6 5 5 5 4 5 4 1 1 1 1 3 2 1 3 2 0 6 3 6 2 2 3 1 5 4 3 5 6 7 8 7 7 6 7 6 7 5 2 6 2 2 0 1 3 5 7 5 2 1 6 5 3 5 0 4 3 3 5 3 5 7 4 5 3 4 4 4 4 5 5 6 5 4 4 4 4 5 6 5 6
7 7 6 6 6 6 6 5 5 4 3 3 4 2 0 2 0 2 1 1 1 1 0 3 5 2 2 3 1 2 1 3 3 4 7 10 10 11 4 3 1 3 5 2 3 6 4 2 2 1 4 4 3 2 4 7 2 2 5 7 6 3 6 4 4 5 5 6 10 11 6 8 11 10 9 9 6 6 5 5 5 5 5 6 6 5 6
7 7 6 6 6 6 6 5 5 4 4 3 3 2 3 4 3 3 3 4 2 2 1 3 5 7 4 7 7 4 3 2 3 4 6 8 9 7 4 3 5 3 5 3 2 4 2 2 3 5 4 3 4 3 3 1 3 3 4 4 2 4 6 2 2 1 5 8 8 4 1 4 5 4 7 7 7 5 4 3 4 5 6 5 5 6 6
6 7 6 6 6 6 6 5 4 5 5 6 4 4 4 5 3 5 3 1 2 3 3 3 6 8 4 5 3 3 5 5 6 6 6 7 8 8 8 7 5 5 3 6 1 1 3 5 7 3 2 1 2 4 1 1 2 2 7 6 7 8 8 8 7 6 7 10 10 7 6 4 6 5 4 5 5 4 5 5 5 5 5 4 4 6 6
6 6 6 6 5 6 5 5 4 5 5 4 4 5 4 5 5 5 5 3 0 2 1 4 5 3 2 6 4 5 5 4 4 5 5 5 7 8 9 9 9 6 4 3 2 2 4 5 4 5 4 5 4 2 3 4 4 8 11 7 9 10 8 13 14 10 9 6 5 7 6 7 4 5 5 6 5 5 6 6 6 7 7 5 5 5 8
6 6 6 5 5 5 5 5 5 4 3 3 3 1 1 1 1 3 5 4 3 2 1 3 4 4 3 2 4 3 2 3 4 3 3 3 5 7 7 8 5 5 4 5 6 4 3 1 2 2 1 1 2 2 3 3 4 8 3 7 14 10 8 11 10 10 10 6 5 8 9 7 3 2 4 4 3 5 5 7 8 7 6 5 6 7 7
6 5 5 5 5 5 5 4 5 6 3 2 1 2 2 1 1 3 5 4 2 0 1 2 5 5 5 3 1 5 6 5 3 3 1 1 2 2 2 2 1 5 3 2 3 3 3 3 2 2 2 6 2 2 4 3 4 5 3 8 10 12 11 13 11 11 12 2 3 3 2 3 1 1 2 5 6 6 6 6 7 7 6 5 6 6 8
5 5 4 4 4 4 4 4 4 2 1 1 2 1 1 1 0 1 4 2 0 1 0 3 2 2 2 4 2 2 3 3 1 2 1 1 2 2 3 3 2 1 1 1 1 1 3 2 3 3 4 5 5 3 3 5 8 14 4 7 7 9 10 10 8 10 6 5 6 2 1 3 3 5 5 3 4 3 6 6 6 6 7 6 6 7 8
5 4 4 4 4 4 4 4 4 3 3 4 8 13 13 12 12 10 2 1 1 2 1 1 2 1 1 5 5 4 1 1 3 3 0 1 2 0 2 1 2 2 1 2 4 3 2 4 3 4 3 4 3 2 2 8 14 14 9 8 6 7 9 9 8 6 5 6 9 10 9 6 5 6 6 5 4 5 5 6 7 4 5 6 8 9 9
3 3 4 4 3 4 5 4 3 5 4 3 4 3 3 7 10 13 4 0 2 1 1 1 2 2 5 2 3 2 2 2 2 2 1 1 0 2 1 1 1 3 3 7 2 2 1 1 5 2 3 3 3 3 7 12 13 11 8 6 1 1 2 3 4 6 7 8 8 8 5 3 3 3 2 3 5 4 3 4 5 6 7 7 9 9 9
3 3 3 3 4 3 4 4 2 2 1 2 4 5 1 5 7 10 9 3 2 1 0 1 1 2 3 2 1 4 1 2 2 1 0 1 1 1 0 1 1 2 3 1 0 3 2 4 4 3 5 3 4 5 8 12 14 5 1 4 5 4 2 1 5 6 5 4 4 5 3 1 0 3 5 5 5 4 3 5 5 5 8 9 10 10 10
2 3 2 2 2 2 1 1 2 2 1 2 3 3 5 7 8 7 7 1 1 0 0 1 1 2 2 3 5 3 1 1 1 0 0 0 1 0 1 2 1 4 0 3 3 1 3 1 2 4 2 3 5 7 10 9 5 5 5 8 7 9 7 7 5 4 3 3 4 3 3 2 3 5 4 4 5 5 4 4 7 6 7 9 10 10 10
2 0 1 2 2 1 1 1 1 3 2 1 1 10 16 11 5 4 2 2 2 0 1 1 2 4 4 3 1 3 4 4 2 2 1 0 2 1 2 2 2 1 1 3 3 4 3 4 3 3 3 3 6 4 6 9 10 11 11 8 7 6 4 4 3 3 5 5 3 2 2 1 2 3 3 6 6 5 3 6 6 6 8 11 10 10 11
2 2 2 1 1 1 1 2 3 3 4 3 6 2 2 1 2 1 1 1 1 2 2 1 5 1 1 1 5 3 1 3 1 0 2 0 1 2 0 2 3 1 3 1 2 2 2 2 2 2 4 4 5 7 10 11 11 10 8 5 7 5 5 5 5 7 6 3 0 1 1 1 4 5 4 6 6 5 5 5 5 5 6 7 10 12 12
1 2 2 1 1 2 1 1 3 5 5 2 1 0 1 0 1 1 2 1 1 2 2 3 4 2 3 3 6 1 3 2 3 0 1 1 1 2 0 0 1 1 2 1 2 1 1 1 2 2 3 3 3 7 9 11 8 3 2 4 5 6 5 5 7 8 8 7 7 6 7 6 6 6 4 5 4 3 4 4 5 6 6 8 10 11 12
1 2 2 1 2 1 1 2 6 1 1 1 0 1 0 0 1 1 1 1 1 1 2 4 2 3 5 8 4 4 0 3 2 2 3 3 0 1 0 0 1 1 2 2 1 1 2 1 1 1 4 3 9 10 10 10 6 3 2 3 4 5 6 7 8 5 6 5 4 5 5 4 4 4 3 3 2 3 4 4 4 5 6 8 12 13 13
1 1 1 1 1 2 3 4 2 1 1 0 1 1 1 0 2 2 2 2 2 3 2 2 0 1 1 1 2 5 3 1 0 1 2 2 0 0 1 2 0 1 3 3 0 1 0 2 2 1 3 5 9 11 11 10 6 4 2 3 4 4 6 6 6 5 4 3 1 1 3 3 4 3 3 3 3 2 3 4 5 5 8 9 12 12 10
1 1 2 2 2 2 2 1 1 1 1 1 0 1 0 1 1 1 1 1 3 1 2 2 2 2 3 7 5 3 2 1 1 0 1 1 0 1 1 1 0 1 3 2 0 1 0 1 1 2 4 7 8 9 9 11 7 4 4 2 1 3 5 5 6 3 4 5 4 3 3 3 3 3 3 4 3 2 3 4 5 6 8 9 10 9 9
4 2 2 2 1 1 0 1 1 2 1 0 1 1 0 0 2 2 1 1 0 1 2 0 2 1 1 1 1 1 1 0 1 1 1 2 0 0 1 1 0 2 2 1 2 1 0 2 1 2 4 7 8 9 9 8 6 3 2 3 3 3 3 5 5 5 4 5 5 5 4 3 4 4 3 2 1 1 2 2 4 5 7 8 8 7 9
0 1 2 1 1 1 1 0 1 1 1 1 1 1 1 1 3 0 1 3 1 2 2 1 1 3 4 1 1 0 1 1 1 1 0 1 1 2 1 2 3 2 1 2 1 2 2 2 3 2 5 5 6 9 9 10 7 2 4 5 6 4 3 2 1 3 3 2 2 1 1 2 1 1 2 2 2 0 2 3 4 6 8 9 7 6 8
2 2 3 1 0 1 1 1 2 3 2 3 2 1 2 1 3 1 3 3 2 4 1 0 1 1 4 2 1 0 1 1 1 1 1 1 1 1 2 3 1 0 0 3 1 2 1 0 2 4 8 9 9 10 10 9 5 2 1 3 5 4 3 4 4 3 4 4 5 3 3 2 2 1 1 1 1 2 2 4 5 6 7 7 6 7 7
1 1 1 2 3 2 1 1 0 1 2 3 2 5 3 5 3 5 5 1 2 5 5 5 1 1 4 2 1 1 0 2 1 1 0 1 1 3 3 0 1 1 1 0 0 2 2 2 6 6 7 8 9 9 9 9 5 1 2 3 4 4 3 4 4 4 5 5 3 3 3 3 3 2 0 2 3 5 3 3 4 6 6 6 6 6 7
1 1 2 2 1 2 1 1 2 4 1 2 2 3 4 5 5 4 2 1 4 5 4 2 3 3 2 2 0 1 1 0 0 1 2 1 2 2 1 1 1 1 1 2 2 2 3 6 6 7 7 8 9 9 8 8 7 5 5 5 5 6 4 5 5 5 5 4 3 4 3 3 3 3 4 5 4 3 3 4 5 5 6 7 6 7 7
1 1 1 0 3 1 1 4 1 0 0 0 1 3 3 1 2 5 5 3 4 0 3 1 2 1 1 1 1 1 1 0 0 1 1 1 1 2 2 2 0 1 2 3 3 2 5 5 7 8 8 7 7 8 9 8 8 8 7 8 8 7 8 5 4 6 5 6 5 5 4 5 5 4 5 6 5 3 3 4 5 4 4 5 5 6 7
2 2 1 2 2 2 3 2 1 0 1 2 5 3 2 2 4 7 6 1 3 5 3 2 2 2 1 0 0 0 1 0 1 1 2 3 2 2 3 3 3 5 1 1 4 6 6 7 7 8 9 9 7 7 8 8 9 9 10 9 10 10 3 3 6 7 4 4 5 5 5 4 4 5 5 5 5 3 3 4 4 4 3 4 6 7 8
1 1 2 1 2 3 3 1 0 3 2 3 2 3 1 2 4 6 2 1 1 0 1 1 1 1 1 0 1 1 0 1 0 1 3 2 1 2 2 6 3 3 6 6 7 7 8 7 7 8 9 10 10 9 9 9 10 11 9 9 6 5 6 6 5 5 5 6 6 6 4 4 4 5 7 6 5 4 4 4 4 3 3 3 4 5 6
1 1 3 3 4 3 1 1 0 3 5 5 3 4 2 2 1 4 3 1 1 1 2 1 0 1 1 2 1 2 0 0 3 3 1 1 1 2 3 7 7 6 9 7 7 7 8 8 8 9 10 10 10 10 9 9 10 10 9 6 4 5 4 4 4 3 3 5 6 6 6 4 4 5 6 6 6 6 6 4 3 3 3 3 4 6 8
0 0 2 3 4 5 4 1 1 5 7 7 4 3 2 0 4 5 1 2 1 2 2 1 1 1 2 0 1 1 1 3 2 2 3 1 0 2 5 7 10 9 8 10 11 9 9 9 9 10 10 10 12 11 10 11 11 10 6 4 4 5 5 4 4 4 4 5 5 5 4 3 5 6 6 6 6 6 5 4 2 2 2 3 4 5 6
Wind_Direction
348 345 342 340 341 342 342 346 347 348 349 22 339 359 34 34 117 257 303 357 44 74 53 354 37 52 284 269 22 3 50 78 330 35 356 50 42 34 45 1 89 15 73 36 64 77 74 16 55 115 345 44 349 294 329 327 0 92 350 39 304 68 45 31 331 314 299 302 281 17 30 96 20 31 27 16 26 340 207 179 189 114 344 42 342 81 186
349 345 342 341 342 343 343 346 348 349 14 77 301 61 106 149 39 333 327 356 49 76 101 77 60 74 9 55 77 16 74 34 3 33 1 49 6 61 22 9 52 87 23 64 60 322 86 15 65 38 32 47 322 352 5 354 39 30 301 24 287 65 325 108 60 5 341 334 358 346 340 52 56 31 345 358 353 7 61 78 24 76 29 179 124 136 169
349 346 343 343 343 343 344 347 347 352 3 94 131 98 169 106 293 259 310 358 43 98 169 120 93 55 52 51 32 349 36 8 62 55 29 18 74 77 28 45 2 39 6 75 73 41 126 119 336 119 15 293 324 351 13 3 42 19 25 6 263 80 309 85 113 127 134 217 270 269 320 336 329 22 353 359 22 2 20 22 347 80 273 101 126 241 252
350 348 344 345 344 343 345 347 347 350 1 67 75 155 51 25 86 315 349 8 26 56 64 96 120 89 53 46 351 46 49 3 10 54 42 54 56 75 147 309 68 48 45 44 30 33 32 88 179 55 350 337 330 0 346 27 4 20 21 14 63 115 59 75 122 142 173 195 202 257 323 354 29 335 20 353 357 5 80 112 77 20 278 337 243 129 335
351 350 348 348 346 345 346 348 347 349 0 49 110 35 104 129 67 12 345 331 40 36 24 30 59 84 152 83 334 14 9 269 5 26 100 5 57 56 52 345 59 359 66 82 58 359 53 20 69 11 51 286 260 306 27 2 11 16 16 0 88 59 63 19 75 66 147 180 228 312 8 333 294 2 349 344 349 348 39 100 237 183 67 322 266 159 20
351 352 351 352 348 347 348 349 350 347 358 115 83 44 9 71 244 113 199 120 317 26 7 11 64 35 76 83 65 10 37 17 83 343 59 85 22 100 353 28 46 95 131 126 91 357 38 24 75 340 345 3 345 29 356 47 338 16 8 5 81 114 100 7 78 16 349 323 306 331 20 198 270 295 310 327 315 352 2 242 218 138 151 211 252 218 7
351 353 353 353 351 349 351 352 350 353 347 50 91 94 330 111 144 162 322 79 260 171 268 23 73 48 34 89 48 41 49 44 39 146 346 23 355 68 114 26 26 60 65 96 120 127 75 352 332 150 2 31 359 18 345 12 15 34 16 7 64 84 21 158 84 118 7 2 13 7 25 324 338 290 283 281 296 287 260 259 245 186 216 226 263 305 89
352 355 354 355 354 353 355 355 353 353 354 21 69 43 91 7 76 341 5 87 92 3 34 42 45 62 350 76 341 109 9 21 341 5 93 62 342 28 85 136 20 40 69 95 87 160 151 150 138 250 124 353 45 235 181 253 339 31 41 355 336 100 339 28 48 71 5 334 357 12 2 22 303 284 281 272 276 296 263 233 276 219 261 262 261 277 278
353 356 357 357 356 357 358 0 359 354 5 48 61 21 39 158 146 147 99 42 335 358 22 40 50 52 356 65 333 53 345 54 247 33 57 123 208 115 145 166 138 30 71 65 117 199 160 168 166 184 148 140 222 127 290 151 45 353 16 29 323 61 228 45 63 63 326 318 6 307 304 285 236 262 278 284 301 308 299 282 313 341 260 336 86 258 273
353 356 358 359 359 1 2 5 5 1 2 101 80 45 306 60 329 77 101 87 342 41 332 13 61 33 268 106 311 94 313 273 235 63 13 52 64 177 149 178 100 18 57 48 334 209 182 192 204 180 198 167 170 94 145 158 145 167 111 278 61 130 111 68 55 66 279 258 287 295 309 13 15 323 247 289 260 257 293 316 43 24 243 144 189 230 222
353 357 359 359 3 3 6 8 10 11 19 67 75 9 337 55 160 33 48 88 342 54 65 13 96 192 138 360 90 27 84 46 56 111 287 9 3 37 116 114 98 153 126 300 262 204 199 173 125 79 68 72 100 97 91 62 58 131 153 75 32 61 99 128 146 115 250 300 321 327 37 10 254 224 276 239 281 292 300 59 35 339 29 144 122 136 301
353 357 359 2 4 4 8 9 11 19 41 122 133 101 234 104 57 95 88 86 300 354 91 105 152 306 89 353 110 67 57 59 27 117 121 43 286 150 88 71 87 44 273 328 36 58 137 69 37 34 55 58 78 77 73 80 31 24 88 132 141 113 81 143 144 108 275 319 353 33 329 238 243 298 286 275 277 44 102 87 45 21 28 76 83 14 1
353 356 360 3 6 5 8 12 11 14 21 40 82 58 314 97 142 117 117 109 114 329 48 59 354 330 131 94 69 56 23 343 11 46 86 88 11 23 28 98 88 225 356 38 38 48 59 314 3 8 7 359 23 56 53 50 52 34 35 77 118 151 120 164 63 137 31 40 68 93 244 251 278 285 316 322 59 3 97 118 76 2 18 344 21 336 321
351 355 359 3 6 8 9 12 10 8 13 19 59 44 315 346 92 70 89 97 357 261 177 15 9 46 42 62 117 25 7 16 340 21 70 16 57 26 333 77 215 287 151 97 60 73 39 38 33 19 332 7 5 57 332 21 52 57 41 2 76 136 108 101 175 155 163 201 153 223 317 332 335 14 5 25 64 351 50 302 279 59 3 9 344 335 336
349 354 358 3 5 7 10 12 11 8 9 8 97 55 25 11 69 124 181 88 135 191 105 121 243 244 183 89 99 60 35 316 51 18 279 296 82 225 205 307 346 41 90 86 28 40 123 103 31 31 333 43 118 243 332 59 308 63 54 22 73 122 133 231 113 248 130 136 311 348 19 272 278 238 267 130 276 256 253 123 275 55 358 0 0 351 340
344 350 355 1 4 7 10 13 12 10 8 5 66 27 38 16 48 95 117 132 119 55 257 207 182 158 126 146 153 104 174 103 86 329 358 333 278 320 317 342 336 71 54 69 82 92 54 99 181 104 212 201 228 43 289 345 345 318 40 61 75 33 76 131 138 164 78 110 163 207 166 239 205 217 239 293 311 251 267 76 294 110 347 343 350 355 358
339 344 350 357 1 5 9 11 14 12 11 15 26 13 33 21 16 52 80 41 82 206 230 171 146 115 84 46 20 36 152 144 167 107 333 328 271 274 290 334 341 55 74 77 15 73 53 59 81 156 281 199 122 220 355 52 21 332 339 13 42 42 9 42 71 118 176 162 155 242 202 235 252 219 259 240 247 219 81 4 278 7 317 332 356 6 8
336 339 342 351 358 2 5 9 13 13 10 6 49 78 339 355 33 140 51 107 105 296 260 176 120 117 181 188 166 223 103 61 49 55 128 265 349 298 281 6 2 349 94 91 89 65 73 105 154 166 211 253 172 84 232 166 158 212 141 107 32 8 350 64 187 182 216 208 251 318 297 267 232 230 260 294 182 135 227 223 187 342 290 328 12 2 357
331 334 337 344 352 356 0 7 12 11 10 4 26 50 357 343 10 78 117 63 73 199 266 292 35 172 214 123 118 172 195 183 160 103 304 10 244 236 96 59 62 260 3 133 68 115 128 231 86 111 137 289 47 209 183 65 235 274 102 81 30 20 87 323 91 148 196 199 202 237 253 231 187 250 224 257 63 199 218 171 192 226 264 13 16 351 334
324 330 333 336 344 349 356 3 9 11 10 11 35 122 254 343 354 47 82 118 92 231 279 220 154 207 208 159 160 175 173 33 63 127 152 195 264 42 27 9 322 75 359 56 78 189 110 193 208 130 296 190 242 159 82 255 243 177 169 212 144 197 130 205 184 194 72 108 208 279 269 251 127 223 65 166 163 228 154 220 286 161 345 347 323 350 304
317 322 328 330 335 344 349 358 5 9 8 11 34 66 22 3 357 22 66 133 123 3 312 280 286 233 196 207 195 169 148 188 172 154 222 165 207 95 134 206 223 141 207 143 160 227 159 179 216 175 204 140 201 69 217 228 321 280 138 186 197 203 118 230 256 186 156 170 198 209 214 170 190 141 172 223 213 162 154 125 247 128 235 281 301 285 275
315 315 322 325 329 337 343 351 358 6 9 11 18 78 57 283 348 1 335 114 128 187 213 221 193 224 230 218 210 184 205 217 203 154 138 194 249 184 194 142 182 161 192 125 59 21 348 172 63 101 182 204 31 192 169 81 281 269 309 125 284 212 175 178 160 218 156 196 213 239 235 194 218 182 207 214 224 186 185 151 179 202 272 227 274 280 288
314 313 313 320 325 326 335 341 350 1 4 12 29 83 179 317 327 332 341 311 299 297 316 346 340 291 271 257 231 222 229 219 221 172 147 129 258 174 158 155 256 212 129 121 175 161 185 136 208 160 99 196 178 174 281 165 229 240 184 227 193 281 163 176 100 250 274 251 215 204 244 243 247 242 221 215 227 235 165 173 196 212 212 215 257 278 282
310 310 308 313 317 321 321 330 341 349 358 358 56 59 343 252 287 346 16 70 97 302 329 356 26 348 29 357 40 147 181 225 214 217 173 155 164 274 328 232 179 87 275 227 169 137 189 122 199 131 223 231 106 145 176 249 227 199 117 302 258 248 153 126 181 249 64 274 317 197 232 246 248 236 237 238 211 202 174 189 202 216 204 232 241 252 273
308 304 305 303 310 316 319 322 332 338 345 344 345 355 328 332 341 44 75 10 339 72 283 308 287 224 214 252 279 239 217 207 181 176 179 190 194 176 207 208 175 169 220 186 129 77 74 114 238 149 196 251 144 243 218 168 284 159 207 249 30 310 173 152 206 147 174 235 236 247 244 243 239 213 236 246 228 212 204 202 200 199 209 214 236 240 262
306 302 300 301 300 306 312 318 323 333 333 349 333 312 273 232 213 53 47 58 124 123 233 290 276 307 293 318 236 196 214 208 206 181 186 199 204 216 183 105 54 43 101 100 122 152 144 90 108 141 159 273 160 191 208 199 176 172 186 225 196 148 128 223 169 192 265 318 280 260 271 273 259 247 239 240 220 197 209 210 212 210 223 231 231 219 235
303 298 295 297 296 295 303 312 315 321 329 324 303 261 270 267 212 211 153 161 99 348 19 258 279 303 350 313 289 316 290 233 229 210 215 214 212 215 169 160 118 104 113 71 31 118 73 111 135 218 177 236 162 206 152 179 171 168 226 249 172 117 210 189 104 269 261 223 245 135 158 266 284 259 231 224 205 189 218 208 221 218 229 228 232 242 229
300 293 292 292 293 292 296 305 312 315 327 322 294 261 242 251 215 210 234 178 120 188 209 267 298 287 294 287 271 243 261 246 231 229 225 215 205 197 196 188 150 120 142 132 139 182 164 165 231 193 157 213 134 255 121 16 67 298 241 224 176 188 204 150 198 176 241 236 224 188 195 228 235 220 221 208 193 192 219 235 243 250 238 233 244 272 283
301 291 287 290 289 292 292 292 306 310 314 314 297 281 244 229 234 217 217 208 198 99 243 257 267 355 24 293 311 298 273 242 242 220 216 208 190 187 192 184 182 169 131 114 118 133 160 218 146 157 194 202 126 189 115 199 200 232 237 172 174 222 174 183 207 210 246 247 202 181 171 204 236 213 199 212 205 191 225 243 245 251 262 266 262 259 274
301 291 285 286 289 290 289 284 290 309 318 314 304 10 35 346 210 212 199 189 184 108 64 331 323 271 274 304 295 264 273 240 253 242 211 180 181 193 192 179 194 162 153 169 157 191 205 165 241 254 260 181 197 164 197 191 211 250 215 174 202 213 204 213 208 185 227 220 174 179 196 221 221 164 186 209 210 193 211 235 236 242 251 243 260 272 262
296 291 285 286 289 282 282 285 282 287 336 0 18 49 57 335 325 19 156 191 197 114 187 214 252 298 315 251 270 291 298 309 278 262 259 146 166 165 164 112 71 156 171 152 136 192 126 232 159 255 129 198 200 178 212 163 252 271 227 189 200 209 209 222 220 216 227 160 136 145 160 214 183 70 306 246 233 214 230 244 249 245 251 256 260 271 278
298 287 285 285 277 274 272 281 280 280 230 236 183 160 171 153 216 108 33 24 221 129 235 284 298 327 293 301 269 255 284 305 41 32 16 35 34 35 40 141 157 32 47 30 18 88 217 167 190 185 158 187 173 251 172 208 233 252 188 196 210 212 213 224 228 232 229 163 126 114 249 251 183 178 237 232 228 218 212 232 239 238 261 272 271 266 273
291 282 278 279 268 265 264 267 281 278 247 271 283 283 265 241 245 255 283 302 116 243 232 269 259 320 281 269 311 310 275 6 13 26 85 356 156 56 93 68 86 56 96 243 212 219 198 172 150 230 216 125 196 259 235 229 237 247 236 220 204 206 216 227 232 231 200 189 176 193 221 205 213 216 222 251 257 245 233 242 251 260 276 280 282 288 289
279 275 274 266 262 253 257 261 264 281 302 309 309 262 255 224 214 225 171 209 228 238 179 206 291 274 274 340 1 286 17 29 288 51 359 333 125 75 151 63 106 160 209 187 234 228 240 172 208 203 79 204 169 232 245 248 250 258 254 239 191 16 302 258 239 228 209 199 200 211 207 164 132 141 171 212 255 257 244 259 275 285 282 279 283 284 291
286 269 264 251 255 263 271 245 224 225 287 279 257 257 245 190 166 166 162 172 136 204 342 248 190 292 314 323 323 270 333 47 331 312 185 284 350 147 165 97 45 214 266 87 279 210 224 224 141 168 226 118 179 235 251 263 266 266 170 198 182 149 90 291 274 242 230 197 184 207 201 135 291 284 271 274 272 279 293 281 274 276 284 286 289 295 301
275 255 252 268 253 232 225 12 236 230 273 253 231 295 97 102 125 139 160 214 350 62 262 245 206 226 223 298 310 296 15 357 257 345 206 203 3 12 103 134 216 236 121 160 233 117 205 129 101 240 157 187 228 223 249 258 284 272 220 224 196 181 184 185 221 261 208 186 182 157 138 129 180 243 264 275 282 287 280 282 289 280 277 286 292 298 299
239 222 123 218 195 188 246 223 157 193 204 205 194 122 117 108 88 100 71 318 250 213 243 325 278 234 189 259 278 295 27 316 332 8 323 61 216 324 56 43 231 245 161 213 188 220 225 142 188 224 212 210 248 273 302 296 272 256 249 224 186 177 185 221 212 194 170 164 140 121 131 153 250 252 255 268 268 271 293 284 277 285 292 293 299 302 298
188 173 196 183 143 33 8 237 203 224 198 178 148 85 311 304 81 98 127 228 233 206 232 181 251 266 109 173 253 245 59 259 76 285 310 220 61 304 266 233 244 257 266 304 241 118 75 188 229 225 265 256 290 292 292 291 281 265 252 196 172 174 191 201 171 162 151 123 142 256 194 192 259 257 232 258 259 258 255 258 278 281 278 287 295 301 297
149 179 179 214 110 200 158 5 298 167 132 79 76 23 303 300 115 219 194 223 205 224 180 202 249 177 167 226 258 190 198 264 318 279 241 263 93 309 110 285 308 359 288 309 289 82 298 286 220 251 267 292 324 306 313 303 292 266 185 160 166 190 188 193 184 181 170 178 187 188 175 192 212 245 217 227 251 252 251 271 283 285 285 295 299 298 307
156 161 196 154 214 212 316 341 349 71 42 115 312 145 238 63 98 252 106 168 255 221 170 237 213 201 193 212 240 297 140 123 196 264 221 299 212 199 272 187 254 115 257 206 246 94 165 266 189 192 276 321 320 317 322 318 297 280 250 234 215 207 192 185 193 197 173 183 169 176 181 183 179 191 196 192 223 276 303 291 285 292 299 301 311 318 317
208 199 167 222 343 342 312 302 324 71 73 38 4 230 79 289 233 185 150 232 228 238 187 200 348 315 250 153 164 236 288 76 154 150 131 224 314 86 201 220 89 246 252 247 327 83 211 240 227 212 241 304 321 319 323 320 307 296 267 239 221 200 182 184 181 162 153 154 178 189 188 188 196 201 191 194 198 211 250 278 293 303 313 312 317 315 310
99 353 358 324 292 301 318 4 65 61 2 176 124 283 185 236 358 320 171 171 245 221 260 169 253 212 236 187 204 182 270 186 142 144 118 304 178 159 252 278 55 158 270 247 330 292 194 234 223 274 294 318 320 326 327 327 328 331 334 4 239 169 168 175 166 177 175 177 189 201 186 180 194 192 193 197 194 215 254 301 313 320 319 312 316 322 329
281 257 235 278 284 269 117 61 307 111 127 232 41 344 2 348 221 186 266 227 273 136 263 213 242 215 256 101 288 170 179 81 109 296 93 219 296 63 235 260 85 242 231 86 87 83 9 253 264 257 309 328 321 327 328 313 286 284 319 48 27 323 226 175 176 180 190 182 188 196 192 183 199 206 205 176 149 316 327 324 323 317 318 322 323 339 343
157 266 242 204 62 306 89 24 302 42 334 42 117 227 265 311 304 344 340 277 261 293 238 181 280 55 301 284 168 213 26 5 81 92 12 354 93 206 207 235 212 235 68 22 40 169 213 228 213 282 317 315 332 337 336 327 316 338 10 8 17 11 311 264 130 119 149 174 203 188 130 157 165 171 157 155 158 218 327 326 328 336 335 328 332 357 351
135 24 21 23 23 282 55 273 355 113 213 249 183 216 167 241 261 175 225 246 156 222 256 130 157 167 256 279 50 234 122 200 320 103 254 125 358 234 186 250 249 45 159 254 297 312 339 273 331 334 342 340 335 331 330 329 316 309 69 349 316 328 313 247 210 176 170 182 202 177 161 163 160 201 166 134 84 91 49 348 336 347 339 334 352 5 360
108 167 97 65 328 301 109 240 45 293 269 162 194 199 189 234 213 243 247 182 236 286 299 277 225 208 264 233 153 225 348 87 38 242 170 79 104 269 247 251 57 4 311 30 266 242 216 297 337 332 329 325 326 324 324 322 319 299 169 204 258 288 285 269 252 198 194 196 200 156 157 155 170 183 147 95 99 66 37 14 3 357 341 354 15 9 359
55 23 91 119 115 275 75 201 231 205 177 184 218 196 215 245 228 235 237 177 230 253 274 257 221 222 227 303 12 349 58 81 187 284 68 37 219 258 1 84 305 263 205 280 264 279 321 323 322 313 319 322 321 321 315 315 314 290 254 226 226 246 257 260 256 233 210 193 153 132 148 168 161 138 115 100 71 46 34 33 16 2 3 18 19 13 9
169 245 103 199 237 196 149 245 196 231 292 138 221 190 234 270 342 317 280 231 245 264 242 318 330 347 331 312 123 214 242 154 354 300 176 239 18 42 10 12 273 236 189 211 244 298 288 290 310 313 310 311 308 310 311 310 307 297 269 252 245 239 237 233 244 235 198 172 158 147 146 137 135 134 118 110 86 56 52 43 33 8 13 33 27 22 21
130 126 159 203 199 171 237 260 40 302 229 262 274 282 248 221 248 247 258 192 207 235 214 144 203 100 270 240 89 36 316 345 45 275 17 29 77 310 333 300 312 281 173 149 278 288 291 302 303 302 302 303 304 301 298 301 297 294 288 259 240 238 189 146 245 239 202 149 140 139 138 145 135 118 110 100 90 77 69 61 36 31 30 30 30 36 36
71 340 23 73 330 292 239 201 352 280 316 305 309 277 241 228 250 261 215 219 241 79 51 80 60 107 251 59 325 1 279 314 120 353 57 34 20 331 325 293 301 296 304 301 301 302 306 304 303 296 297 299 301 301 299 296 300 298 298 278 233 177 137 173 209 200 182 144 136 129 131 124 137 136 129 128 129 121 86 64 44 38 31 8 23 34 25
63 139 225 196 182 221 149 259 314 318 304 283 253 260 201 210 193 280 242 160 41 44 50 211 251 80 3 20 52 22 300 203 49 32 111 299 35 318 278 286 290 292 291 291 293 303 305 304 301 297 298 297 297 294 291 293 293 292 287 252 183 150 148 146 156 149 146 129 128 123 122 156 163 129 127 124 116 100 79 70 57 38 18 6 19 20 31
82 232 267 260 223 236 226 197 134 239 244 261 259 254 152 262 240 243 236 89 65 61 305 208 78 42 59 331 236 232 320 41 55 17 1 311 225 293 290 288 296 303 309 312 308 304 298 291 287 289 287 291 294 293 292 291 289 290 268 210 141 147 152 141 137 130 137 124 123 118 121 118 116 124 130 120 111 94 91 90 68 35 20 15 19 34 53